Regional Weather Roundup
Issued by NWS

Home | Current Version | Previous Version | Text Only | Print | Product List | Glossary On
Versions: 1 2 3 4 5 6 7 8 9 10 11 12 13 14 15 16 17 18 19 20 21 22 23 24 25 26 27 28 29 30 31 32 33 34 35 36 37 38 39 40 41 42 43 44 45 46 47 48 49 50
000
ASUS44 KFWD 271101
RWRTX
NORTH TEXAS HOURLY WEATHER ROUNDUP
NATIONAL WEATHER SERVICE FORT WORTH TX
600 AM CDT FRI MAY 27 2016

NOTE: "FAIR" INDICATES FEW OR NO CLOUDS BELOW 12,000 FEET WITH NO
SIGNIFICANT WEATHER AND/OR OBSTRUCTIONS TO VISIBILITY.

TXZ118-119-271200-
DALLAS/FORT WORTH METROPLEX

CITY           SKY/WX    TMP DP  RH WIND       PRES   REMARKS
DFW AIRPORT    TSTM      67  64  90 W10G17    29.80R
DALLAS LOVE    TSTM      67  65  93 SW8       29.80S FOG
FTW MEACHAM    RAIN      67  62  84 N14       29.76F
DAL-EXECUTIVE  RAIN      65  63  93 SW8G21    29.81S FOG
FTW-ALLIANCE   TSTM      66  63  90 N12       29.81S
FTW-NAS-JRB    TSTM      67  63  87 N10       29.76F
ARLINGTON      RAIN      68  63  84 VRB6      29.81S
GRAND PRAIRIE  CLOUDY    65  65 100 W9        29.83S
MESQUITE       CLOUDY    69  66  92 S22G33    29.81R
LANCASTER      TSTM      65  63  93 SW12      29.84R
$$

TXZ091>094-102>105-117-120-121-131>134-271200-
NORTH CENTRAL TEXAS

CITY           SKY/WX    TMP DP  RH WIND       PRES   REMARKS
DECATUR        RAIN      65  64  99 NE9       29.82F
DENTON         TSTM      65  64  97 W14       29.83R FOG
MCKINNEY       TSTM      69  66  90 W8        29.83R FOG
ROCKWALL       CLOUDY    70  67  89 SW20G28   29.81R
TERRELL        CLOUDY    70  66  87 SW25G38   29.82R
$$

TXZ083>090-098>101-113>116-127>130-139>142-154-155-271200-
WESTERN NORTH TEXAS

CITY           SKY/WX    TMP DP  RH WIND       PRES   REMARKS
WICHITA FALLS  LGT RAIN  65  63  93 E13G21    29.61F
WF-KICKAPOO    LGT RAIN  67  63  88 E16G25    29.61F
VERNON         CLOUDY    69  55  61 SW3       29.67R
ABILENE        MOCLDY    61  61 100 SE13      29.73R
MINERAL WELLS  CLOUDY    66  60  81 E14       29.65F
STEPHENVILLE   CLOUDY    62  59  90 CALM      29.82F
COMANCHE       TSTM      61  61 100 NE8G16    29.73S
BROWNWOOD      CLOUDY    64  63  94 CALM      29.74S
COLEMAN        CLOUDY    63  62  97 E5        29.74R
$$

TXZ143>147-156>162-174-175-271200-
CENTRAL TEXAS

CITY           SKY/WX    TMP DP  RH WIND       PRES   REMARKS
WACO           TSTM      63  61  93 CALM      29.87S FOG
WACO-MCGREGOR  LGT RAIN N/A N/A N/A NE8         N/A
HILLSBORO      DRIZZLE   62  61  97 SE6       29.84F
CORSICANA      TSTM      70  65  84 NW18G26   29.89R
MEXIA          CLOUDY    67  67  98 W17G30    29.87R
HEARNE         CLOUDY    67  65  96 SE8       29.77F
TEMPLE         CLOUDY    68  66  93 N16G23    29.83R
KILLEEN        TSTM      68  66  94 NE14G25   29.77R FOG
KILLEEN-SKYLRK TSTM      70  66  87 NE14      29.79R
FORT HOOD      TSTM      68  66  94 NE12G20   29.79R
HAMILTON       TSTM      62  62 100 E10G16    29.80S
$$

TXZ095>097-106>112-122>126-135>138-148>153-164>167-271200-
EAST TEXAS

CITY           SKY/WX    TMP DP  RH WIND       PRES   REMARKS
PARIS          CLOUDY    68  61  77 NW6       29.73R
SULPHUR SPRNGS CLOUDY    73  61  65 W16G24    29.74R
GILMER         LGT RAIN  68  66  94 SE14G21   29.72F
MINEOLA        CLOUDY    70  66  88 S3        29.72F
TYLER          LGT RAIN  69  66  90 SE13      29.72S
LONGVIEW       RAIN      68  67  96 S16       29.79F
PALESTINE      LGT RAIN  69  67  94 E14G22    29.72F
JACKSONVILLE   TSTM      68  67  97 SE13G20   29.81F
NACOGDOCHES    CLOUDY    66  66 100 SE3       29.86R
LUFKIN         TSTM      67  67 100 NE12      29.83F
$$

SUPPLEMENTAL OBSERVATIONS (CENTRAL)

CITY           SKY/WX    TMP DP  RH WIND       PRES   REMARKS
$$

SUPPLEMENTAL OBSERVATIONS (WEST)

CITY           SKY/WX    TMP DP  RH WIND       PRES   REMARKS
$$

SUPPLEMENTAL OBSERVATIONS (EAST)

CITY           SKY/WX    TMP DP  RH WIND       PRES   REMARKS
$$

SUPPLEMENTAL OBSERVATIONS ARE A COLLECTION OF AUTOMATED INSTRUMENTS
THAT ARE MAINTAINED BY A VARIETY OF FEDERAL AND STATE AGENCIES.
CERTAIN ELEMENTS...SUCH AS HUMIDITY VALUES AND SUSTAINED WIND
SPEEDS...MAY BE APPROXIMATED.





USA.gov is the U.S. government's official web portal to all federal, state and local government web resources and services.